{"data":{"norad_id":61634,"intl_designator":"2024-191P","name":"STARLINK-32355","alt_names":[],"object_type":"PAYLOAD","status":"ACTIVE","operator":null,"country":"US","launch_date":"2024-10-23","launch_site_code":"AFETR","launch_vehicle":null,"mission":null,"orbit_class":"UNKNOWN","rcs_meters":null,"size_class":null,"mass_kg":null,"dimensions":null,"purposes":["comms"],"wikipedia_slug":null,"has_3d_model":false,"image_url":null,"decayed_at":null,"tle_current":{"epoch":"2026-09-21T00:08:09.762720Z","epoch_age_seconds":148337,"freshness":"FRESH","line1":"1 61634U 24191P   26264.00566855 -.00000364  00000+0 -37250-5 0  9998","line2":"2 61634  43.0016 135.2541 0000955 265.8166  94.2576 15.27577400107368","mean_motion":15.275774,"eccentricity":9.55e-5,"inclination_deg":43.0016,"raan_deg":135.2541,"arg_perigee_deg":265.8166,"mean_anomaly_deg":94.2576,"bstar":-3.725e-6,"rev_number":10736,"period_min":94.266909159562,"perigee_km":482.40163737037,"apogee_km":483.71212540171,"semimajor_km":6861.193881386,"source":"CELESTRAK","updated_at":"2026-09-22T09:00:49.397488Z"}}}